Regional Weather Roundup
Issued by NWS

Home | Current Version | Previous Version | Graphics & Text | Print | Product List | Glossary On
Versions: 1 2 3 4 5 6 7 8 9 10 11 12 13 14 15 16 17 18 19 20 21 22 23 24 25 26 27 28 29 30 31 32 33 34 35 36 37 38 39 40 41 42 43 44 45 46 47 48 49
000
ASUS43 KDMX 180007
RWRIA

WEATHER ROUNDUP FOR IOWA
NATIONAL WEATHER SERVICE DES MOINES IA
700 PM CDT WED SEP 17 2014

NOTE: "FAIR" INDICATES FEW OR NO CLOUDS BELOW 12,000 FEET WITH NO
SIGNIFICANT WEATHER AND/OR OBSTRUCTIONS TO VISIBILITY.

* - THESE STATIONS ARE NOT NWS STATIONS...THUS NOT UNDER NWS
QUALITY CONTROL.  THEY ALSO DO NOT REPORT WEATHER SUCH
AS PRECIPITATION OR FOG.

IAZ001>003-012>014-020>022-031>034-043>046-180100-
   NORTHWEST IOWA

CITY           SKY/WX    TMP DP  RH WIND       PRES   REMARKS
CARROLL *      CLEAR     70  57  64 SE5       29.93R
CHEROKEE *     PTCLDY    73  58  59 E3        29.92S
DENISON *      CLEAR     72  61  68 E5        29.90S
LE MARS *      CLEAR     75  61  60 SE6       29.92R
ORANGE CITY *  PTCLDY    73  57  56 CALM      29.93R
SHELDON *      PTCLDY    70  59  68 SE6       29.92S
SIOUX CITY     CLEAR     76  57  51 E6        29.90R
6HR MIN TEMP:  75; 6HR MAX TEMP:  82;

SPENCER        PTCLDY    70  56  61 SE5       29.94R
6HR MIN TEMP:  68; 6HR MAX TEMP:  76;

STORM LAKE *   CLEAR     68  61  77 SE5       29.94R
$$

IAZ055>058-069>071-079>083-090>094-180100-
   SOUTHWEST IOWA

CITY           SKY/WX    TMP DP  RH WIND       PRES   REMARKS
ATLANTIC *     CLEAR     73  59  60 E5        29.91S
AUDUBON *      CLEAR     70  57  64 E3        29.94S
CLARINDA *     CLEAR     73  63  68 SE3       29.92S
COUNCIL BLFS * CLEAR     73  64  73 E3        29.90S
CRESTON *      CLEAR     70  61  73 E5        29.93S
HARLAN  *      CLEAR     73  61  64 E5        29.95R
LAMONI         PTCLDY    69  60  73 E5        29.92S
6HR MIN TEMP:  70; 6HR MAX TEMP:  77;

SHENANDOAH *   CLEAR     73  64  73 SE5       29.91S
$$

IAZ047>049-059>061-072>074-084-180100-
   CENTRAL IOWA

CITY           SKY/WX    TMP DP  RH WIND       PRES   REMARKS
AMES           PTCLDY    67  57  70 E5        29.94R
6HR MIN TEMP:  67; 6HR MAX TEMP:  76;

ANKENY *       PTCLDY    70  57  64 E3        29.93S
CHARITON *     CLEAR     68  59  73 E6        29.93S
DES MOINES     PTCLDY    72  56  57 E5        29.93S
6HR MIN TEMP:  71; 6HR MAX TEMP:  76;

GRINNELL*      CLEAR     66  57  72 CALM      29.95S
KNOXVILLE *    CLEAR     68  59  73 CALM      29.93S
MARSHALLTOWN   CLEAR     66  56  70 E3        29.95R
6HR MIN TEMP:  66; 6HR MAX TEMP:  72;

PELLA *        PTCLDY    68  57  68 SE3       29.95S
PERRY *          N/A     69  57  63 E5        29.93S
$$

IAZ004>006-015-016-023>025-035-036-180100-
   NORTH CENTRAL IOWA

CITY           SKY/WX    TMP DP  RH WIND       PRES   REMARKS
ALGONA *       CLEAR     70  57  64 CALM      29.94S
CLARION *        N/A     68  54  60 SE6       29.94S
ESTHERVILLE    PTCLDY    70  56  61 CALM      29.94R
6HR MIN TEMP:  69; 6HR MAX TEMP:  75;

FORT DODGE *   PTCLDY    70  55  60 S3        29.95R
MASON CITY     CLEAR     66  52  60 E6        29.96S
6HR MIN TEMP:  66; 6HR MAX TEMP:  74;

FOREST CITY *  PTCLDY    68  55  64 E3        29.95S
IOWA FALLS *     N/A     66  54  63 E3        29.96S
$$

IAZ007>011-017>019-026>030-037>042-050>054-066-180100-
   NORTHEAST IOWA

CITY           SKY/WX    TMP DP  RH WIND       PRES   REMARKS
CEDAR RAPIDS   CLEAR     65  56  72 E3        29.95S
6HR MIN TEMP:  65; 6HR MAX TEMP:  71;

CHARLES CITY * CLEAR     64  57  77 CALM      29.97S
CLINTON *      CLEAR     64  52  63 CALM      29.99S
DECORAH *      CLEAR     64  54  68 CALM      29.97R
DUBUQUE        CLEAR     64  52  64 CALM      29.98R
6HR MIN TEMP:  64; 6HR MAX TEMP:  69;

MONTICELLO *   CLEAR     64  54  68 CALM      29.96S
OELWEIN *      CLEAR     66  52  59 CALM      29.97R
WATERLOO       CLEAR     68  49  50 E3        29.95R
6HR MIN TEMP:  68; 6HR MAX TEMP:  73;

$$

IAZ064-065-067-068-078-180100-
   EAST CENTRAL IOWA

CITY           SKY/WX    TMP DP  RH WIND       PRES   REMARKS
DAVENPORT      CLEAR     64  48  56 CALM      29.97R
6HR MIN TEMP:  64; 6HR MAX TEMP:  70;

IOWA CITY      CLEAR     66  55  67 SE6       29.96S
6HR MIN TEMP:  65; 6HR MAX TEMP:  71;

MT. PLEASANT * CLEAR     66  54  64 E5        29.95S
MUSCATINE *    CLEAR     68  54  60 E3        29.96S
QUAD CITIES    CLEAR     63  53  70 CALM      29.96R
6HR MIN TEMP:  63; 6HR MAX TEMP:  71;

$$

IAZ062-063-075>077-085>089-095>099-180100-
   SOUTHEAST IOWA

CITY           SKY/WX    TMP DP  RH WIND       PRES   REMARKS
BURLINGTON     CLEAR     66  55  67 E3        29.95S
6HR MIN TEMP:  64; 6HR MAX TEMP:  69; 6HR PCP: TRACE;

FAIRFIELD *    CLEAR     64  55  72 E6        29.95S
FORT MADISON * CLEAR     64  55  72 CALM      29.96S
KEOKUK *       CLEAR     64  59  82 E3        29.94S
OSKALOOSA *      N/A     66  57  72 CALM      29.94S
CENTERVILLE *  CLEAR     66  63  88 E3        29.95S
OTTUMWA        CLEAR     65  58  78 SE3       29.94S
6HR MIN TEMP:  65; 6HR MAX TEMP:  72;

WASHINGTON *   CLEAR     64  59  82 E5        29.95S
$$

ABBREVIATIONS USED IN REMARKS
   TC - TEMPERATURES IN CELSIUS
  WCI - WIND CHILL INDEX
   HX - HEAT INDEX
  VSB - VISIBILITY
$$



USA.gov is the U.S. government's official web portal to all federal, state and local government web resources and services.